User: anonymous   Login
Location: Bonny Doon Airfield
(37.0704°N, 122.1252°W)
Time: 02:31:14
(UTC-08:00)
Language:

BREEZE M DEB (TANK) - Orbit

View from above orbital plane
View from above orbital plane
View from above satellite
View from above satellite

Ground track
Ground track

The orbit data is extracted from the following two-line orbital elements,

1 33437U 08057B   16342.11239315  .00001149  00000-0  23422-3 0  9992
2 33437  49.5924  50.6019 5004769 295.8753  21.4621  5.59830583163097
Epoch (UTC): 07 December 2016 02:41:50
Eccentricity: 0.5004769
inclination: 49.5924°
perigee height: 314 km
apogee height: 13725 km
right ascension of ascending node: 50.6019°
argument of perigee: 295.8753°
revolutions per day: 5.59830583
mean anomaly at epoch: 21.4621°
orbit number at epoch: 16309

The dashed part of the orbit path shows where the satellite is in the earth's shadow,  

DLR